Location: Blue Pit
(43.1414°N, 93.2208°W)
Time: 23:46:46
(UTC+00:00)

Helios 1A Rocket - Pass Details

Date: 18 November 2025
Orbit: 438 x 450 km, 98.3° (Epoch: 14 December)

Event Time Altitude Azimuth Distance (km) Brightness Sun altitude
Rises 12:11:18 0° 191° (SSW) 2,421 6.2 -10.8°
Reaches altitude 10° 12:13:33 10° 206° (SSW) 1,554 5.0 -10.4°
Maximum altitude 12:16:20 25° 263° (W) 941 3.5 -9.9°
Drops below altitude 10° 12:19:08 10° 320° (NW) 1,561 4.6 -9.4°
Enters shadow 12:19:22 - 322° (NW) 1,641 4.7 -9.4°
